Date,TemperatureHighF,TemperatureAvgF,TemperatureLowF,DewpointHighF,DewpointAvgF,DewpointLowF,HumidityHigh,HumidityAvg,HumidityLow,PressureMaxIn,PressureMinIn,WindSpeedMaxMPH,WindSpeedAvgMPH,GustSpeedMaxMPH,PrecipitationSumIn
2014-1-1,32.6,27.1,20.0,23.0,17.6,11.5,76,67,59,30.37,30.22,15,2,15,0.00
2014-1-2,29.7,23.3,13.7,23.2,19.5,11.7,93,85,72,30.22,29.66,19,6,19,0.05
2014-1-3,15.0,10.8,6.0,11.9,7.4,2.2,92,86,78,30.44,29.63,31,6,31,0.01
2014-1-4,24.9,14.2,4.2,19.6,10.1,1.2,97,84,72,30.50,30.26,13,2,13,0.04
2014-1-5,35.3,23.3,11.2,34.8,21.7,9.3,98,94,88,30.28,29.71,5,0,5,0.02
2014-1-6,52.4,38.5,17.3,52.4,34.2,4.0,100,86,56,29.72,29.33,30,4,30,0.01
2014-1-7,17.0,7.8,3.0,3.6,-5.2,-9.3,61,54,47,30.35,29.70,29,7,29,0.05
2014-1-8,22.2,14.4,6.9,8.8,3.4,-3.0,70,61,52,30.52,30.35,14,3,14,0.00
2014-1-9,33.7,24.3,16.4,18.2,14.4,8.8,83,66,48,30.61,30.45,14,1,14,0.00
2014-1-10,34.0,29.6,22.6,33.2,26.5,18.0,97,88,77,30.55,30.17,4,0,4,0.00
2014-1-11,57.3,45.8,33.9,57.3,45.4,33.1,100,99,97,30.17,29.27,19,1,19,0.00
2014-1-12,53.1,43.5,35.2,52.3,34.3,29.2,97,70,59,30.02,29.34,32,6,32,0.00
2014-1-13,51.4,39.9,27.8,43.3,34.7,26.0,95,82,70,30.11,29.84,12,0,12,0.00
2014-1-14,46.2,43.0,38.3,45.6,41.7,35.6,100,95,86,29.85,29.62,9,0,9,0.00
2014-1-15,47.3,37.8,29.6,43.1,36.5,28.9,99,95,82,29.96,29.81,5,0,7,0.00
2014-1-16,40.6,37.6,33.3,39.0,33.8,30.4,97,86,77,29.91,29.80,13,1,13,0.00
2014-1-17,44.6,34.6,25.8,32.8,29.5,24.7,96,83,62,29.95,29.83,12,0,12,0.00
2014-1-18,38.4,33.3,27.2,34.4,28.4,21.0,95,82,71,29.83,29.62,20,3,21,0.00
2014-1-19,34.7,29.4,24.2,26.7,21.8,17.2,78,73,66,29.80,29.61,22,4,22,0.00
2014-1-20,43.4,37.0,28.9,33.5,27.8,18.2,80,69,60,29.87,29.53,25,4,25,0.00
2014-1-21,28.8,17.7,9.6,18.2,11.8,5.7,91,79,56,29.98,29.81,20,5,20,0.00
2014-1-22,17.0,10.2,4.2,6.9,1.2,-1.9,89,67,52,29.97,29.77,24,6,24,0.00
2014-1-23,22.0,12.5,4.5,8.8,3.3,-2.6,76,66,54,30.26,29.96,21,3,21,0.00
2014-1-24,21.8,14.3,8.9,6.4,2.9,-0.3,71,60,45,30.35,30.03,23,5,23,0.00
2014-1-25,25.2,21.1,16.9,22.1,14.6,6.0,91,76,60,30.03,29.40,19,4,19,0.00
2014-1-26,25.3,20.2,14.5,19.4,10.5,2.9,100,66,49,29.87,29.42,21,4,21,0.00
2014-1-27,42.1,27.8,19.4,31.9,17.0,3.7,84,65,40,30.05,29.57,30,4,30,0.00
2014-1-28,19.4,14.4,11.3,4.3,-11.2,-99.9,61,42,38,30.34,30.05,13,-104,21,0.00
2014-1-29,25.6,9.9,12.5,11.8,-45.1,-99.9,92,29,39,30.26,30.05,20,-473,20,0.00
2014-1-30,30.1,9.2,11.9,12.6,-58.8,-99.9,68,19,46,30.42,30.16,11,-621,11,0.00
2014-1-31,-200.0,0.0,200.0,-99.9,-99.9,-99.9,0,0,100,30.19,30.04,0,-999,0,0.00
2014-2-1,-200.0,0.0,200.0,-99.9,-99.9,-99.9,0,0,100,30.29,30.18,0,-999,0,0.00
2014-2-2,28.5,28.5,28.5,11.3,11.3,11.3,1,1,1,30.05,29.87,0,0,0,0.00
2014-2-3,28.5,28.5,28.5,11.3,11.3,11.3,1,1,1,30.27,30.03,0,0,0,0.00
2014-2-4,36.9,20.3,28.5,28.8,-22.0,-99.9,82,13,1,30.43,30.20,5,-324,5,0.01
2014-2-5,-200.0,0.0,200.0,-99.9,-99.9,-99.9,0,0,100,30.22,29.59,0,-999,0,0.00
2014-2-6,30.9,8.1,19.2,22.3,-61.4,-99.9,84,25,66,30.26,29.93,16,-673,16,0.00
2014-2-7,35.2,10.5,22.1,21.5,-57.5,-99.9,79,23,55,30.29,30.15,10,-642,13,0.00
2014-2-8,30.9,9.0,17.5,13.3,-62.0,-99.9,67,17,43,30.30,30.10,11,-654,11,0.00
2014-2-9,30.5,8.3,17.2,17.2,-63.2,-99.9,70,20,55,30.16,29.95,9,-677,9,0.00
2014-2-10,28.8,9.0,18.7,15.8,-59.2,-99.9,81,23,55,30.24,29.95,20,-637,20,0.00
2014-2-11,26.4,7.5,14.6,11.4,-61.7,-99.9,70,21,50,30.44,30.24,15,-648,16,0.00
2014-2-12,25.6,7.5,9.2,11.0,-60.2,-99.9,83,21,48,30.55,30.26,11,-629,11,0.00
2014-2-13,31.6,1.4,31.1,31.0,-94.0,-99.9,98,4,98,30.26,28.96,23,-954,23,0.00
2014-2-14,40.4,18.6,31.1,37.5,-32.9,-99.9,99,43,67,29.73,28.99,33,-487,33,0.00
2014-2-15,37.3,11.0,32.6,31.4,-59.7,-99.9,94,25,70,29.74,29.55,19,-684,19,0.00
2014-2-16,29.6,9.3,20.7,16.3,-58.8,-99.9,70,22,56,30.07,29.71,21,-639,21,0.00
2014-2-17,34.4,11.9,16.7,12.4,-52.0,-99.9,58,20,36,30.34,30.07,19,-550,19,0.00
2014-2-18,40.3,23.6,27.1,34.4,-15.3,-99.9,94,28,1,30.28,29.90,21,-291,21,0.00
2014-2-19,41.5,8.7,24.2,39.6,-67.6,-99.9,96,22,82,30.06,29.64,7,-757,7,0.00
2014-2-20,49.9,16.1,32.0,34.7,-52.2,-99.9,86,23,48,30.21,29.93,7,-639,9,0.00
2014-2-21,39.5,0.4,39.5,39.2,-98.5,-99.9,99,1,99,30.00,29.59,5,-989,5,0.00
2014-2-22,54.8,18.6,28.7,38.5,-47.1,-99.9,99,24,40,30.00,29.87,28,-596,28,0.00
2014-2-23,55.1,27.9,30.1,36.1,-25.9,-99.9,94,30,1,29.98,29.79,11,-443,11,0.00
2014-2-24,37.5,13.9,31.9,19.3,-52.6,-99.9,58,20,44,30.04,29.75,29,-594,29,0.00
2014-2-25,32.9,9.4,23.5,20.6,-63.1,-99.9,70,19,53,30.04,29.88,24,-683,24,0.00
2014-2-26,31.2,7.4,25.5,24.3,-69.8,-99.9,89,17,49,29.93,29.77,23,-742,23,0.00
2014-2-27,31.2,9.7,10.5,16.1,-57.4,-99.9,84,22,44,30.06,29.57,31,-616,31,0.00
2014-2-28,25.2,6.5,7.5,4.6,-62.7,-99.9,58,18,38,30.39,30.07,16,-629,16,0.00
2014-3-1,38.5,10.5,11.2,20.6,-58.1,-99.9,84,21,46,30.39,30.09,13,-637,13,0.00
2014-3-2,39.8,20.2,36.7,29.4,-33.9,-99.9,67,13,1,30.10,29.94,13,-460,13,0.00
2014-3-3,38.4,21.1,18.7,27.3,-18.5,-99.9,55,16,1,30.30,29.98,18,-305,18,0.00
2014-3-4,30.5,8.5,9.9,10.0,-58.9,-99.9,65,19,39,30.40,30.20,10,-611,10,0.00
2014-3-5,36.6,11.7,27.4,18.0,-59.5,-99.9,60,16,42,30.42,30.16,11,-647,13,0.00
2014-3-6,29.7,9.0,13.6,9.7,-58.3,-99.9,63,19,41,30.60,30.42,13,-603,15,0.00
2014-3-7,38.2,11.0,27.2,28.6,-59.2,-99.9,77,23,67,30.45,29.88,11,-674,11,0.00
2014-3-8,57.4,31.1,32.2,37.9,-13.2,-99.9,92,39,45,29.88,29.72,20,-351,20,0.00
2014-3-9,43.8,39.1,34.8,32.2,23.5,17.1,76,54,39,29.98,29.85,15,4,23,0.00
2014-3-10,52.3,42.8,35.5,36.3,30.2,19.1,83,61,48,29.90,29.56,14,2,14,0.00
2014-3-11,66.2,52.5,39.2,43.3,38.3,33.5,81,60,38,29.65,29.50,19,2,19,0.00
2014-3-12,53.1,47.5,33.3,48.5,41.2,28.7,96,79,67,29.63,28.97,21,2,27,0.07
2014-3-13,33.3,22.7,16.9,28.3,9.0,3.5,82,56,42,30.05,29.13,37,12,37,0.00
2014-3-14,47.3,31.8,17.0,30.0,16.7,4.4,72,54,38,30.17,29.86,19,3,19,0.00
2014-3-15,58.4,48.4,38.7,38.8,32.3,28.2,77,55,39,29.96,29.70,35,5,35,0.00
2014-3-16,42.3,33.1,29.0,28.1,15.5,10.9,61,48,40,30.16,29.95,25,6,25,0.00
2014-3-17,33.3,27.2,20.9,13.1,8.5,2.9,54,45,34,30.11,30.00,15,4,18,0.00
2014-3-18,41.9,32.5,23.0,22.8,12.2,5.2,70,44,22,30.25,30.08,14,2,14,0.00
2014-3-19,42.4,35.1,28.4,38.4,31.4,22.7,97,86,71,30.28,29.79,20,2,20,0.24
2014-3-20,55.3,45.1,38.9,45.0,35.7,27.5,98,73,44,29.85,29.68,22,5,30,0.06
2014-3-21,51.2,43.0,35.4,28.5,26.7,24.6,68,53,40,30.01,29.85,27,6,27,0.00
2014-3-22,63.8,46.5,31.1,42.2,33.0,25.3,81,61,37,30.02,29.70,27,4,27,0.00
2014-3-23,41.8,37.1,26.6,29.4,21.8,10.9,68,54,38,30.09,29.93,23,5,23,0.00
2014-3-24,35.6,26.9,19.7,12.6,10.6,8.3,64,50,37,30.20,30.06,19,5,24,0.00
2014-3-25,38.9,30.6,19.7,22.2,17.3,11.4,79,59,39,30.13,29.82,18,1,18,0.00
2014-3-26,34.7,31.2,23.6,22.4,14.8,7.4,66,51,38,30.19,29.70,40,10,40,0.00
2014-3-27,45.2,33.0,20.2,25.1,15.3,9.7,67,49,31,30.37,30.19,19,3,19,0.00
2014-3-28,52.7,44.0,35.5,50.9,38.8,23.0,97,83,54,30.22,29.92,10,0,10,0.04
2014-3-29,51.2,46.5,42.3,50.4,44.6,40.1,98,93,80,30.15,29.65,14,2,14,0.44
2014-3-30,47.0,44.2,40.6,45.5,42.8,38.2,99,95,88,29.65,29.45,23,7,27,0.02
2014-3-31,55.2,44.4,37.0,40.8,36.7,30.7,95,76,54,30.04,29.64,24,6,24,0.00
2014-4-1,62.4,47.1,34.4,41.5,35.2,29.3,82,65,45,30.09,29.91,10,2,13,0.00
2014-4-2,55.8,45.7,37.3,46.8,40.5,34.7,92,82,69,30.10,29.99,6,0,6,0.00
2014-4-3,67.5,53.3,41.5,45.4,35.4,27.0,95,57,24,30.09,29.94,15,2,15,0.00
2014-4-4,48.9,42.1,38.5,45.4,39.6,37.2,97,91,80,30.03,29.71,18,3,18,0.00
2014-4-5,55.2,45.6,38.9,45.2,36.1,27.2,98,72,48,30.03,29.68,32,6,32,0.00
2014-4-6,62.9,46.8,33.8,35.0,28.7,25.8,73,52,26,30.16,30.03,19,2,19,0.00
2014-4-7,52.9,44.4,37.4,44.7,37.5,25.6,98,79,35,30.17,29.67,14,2,14,0.00
2014-4-8,66.4,53.3,44.9,59.6,46.3,38.3,100,80,52,29.67,29.34,32,4,32,0.00
2014-4-9,60.7,50.4,39.4,99.9,37.5,22.0,87,57,37,29.99,29.57,22,5,30,0.00
2014-4-10,63.1,50.7,34.7,43.2,33.1,21.9,72,52,39,30.16,29.97,20,3,20,0.00
2014-4-11,76.3,61.5,52.6,54.8,47.1,38.1,87,60,44,29.98,29.87,25,3,25,0.00
2014-4-12,74.3,60.3,47.1,52.9,45.2,38.7,93,62,31,30.18,29.96,17,2,17,0.00
2014-4-13,84.0,64.5,47.2,61.8,51.5,37.4,86,64,42,30.15,29.90,26,3,26,0.00
2014-4-14,79.2,69.1,61.6,62.4,59.4,57.1,90,72,52,29.96,29.78,31,5,31,0.00
2014-4-15,66.0,56.2,33.8,64.4,54.3,32.3,99,94,81,29.89,29.46,27,4,27,0.19
2014-4-16,47.2,38.6,30.3,32.4,24.6,20.8,95,59,40,30.53,29.87,28,7,30,0.01
2014-4-17,50.3,41.0,32.8,35.8,28.6,21.9,84,62,45,30.69,30.53,17,2,17,0.00
2014-4-18,49.7,41.4,32.9,37.0,33.0,28.0,90,73,54,30.57,30.22,12,1,12,0.00
2014-4-19,67.4,53.8,39.3,42.1,35.4,31.2,88,54,28,30.30,30.16,23,4,23,0.00
2014-4-20,59.4,51.0,42.4,37.0,33.1,30.7,67,51,38,30.45,30.28,16,3,16,0.00
2014-4-21,70.0,51.9,33.9,45.6,36.6,28.2,89,60,28,30.28,29.83,13,1,13,0.00
2014-4-22,74.8,58.3,44.2,57.9,50.2,41.7,93,76,47,29.83,29.45,13,2,16,0.00
2014-4-23,60.2,52.2,43.4,53.2,41.6,34.4,82,67,52,29.80,29.43,38,10,38,0.00
2014-4-24,62.1,51.0,41.0,34.6,27.0,22.6,71,42,24,29.98,29.79,33,8,33,0.00
2014-4-25,64.5,52.4,40.2,42.9,31.9,25.4,75,47,31,30.00,29.72,18,2,18,0.00
2014-4-26,66.3,53.3,45.2,53.4,47.2,42.9,97,82,49,29.83,29.64,19,2,19,0.50
2014-4-27,56.7,51.5,44.1,43.6,39.8,38.7,82,65,53,30.08,29.83,23,5,23,0.01
2014-4-28,65.9,54.5,40.5,44.5,39.9,37.3,90,61,38,30.08,29.95,19,2,19,0.00
2014-4-29,54.5,46.7,41.7,43.4,41.6,39.9,94,82,66,30.39,30.07,22,3,22,0.05
2014-4-30,47.9,43.5,40.7,47.5,42.8,39.2,100,97,91,30.36,29.93,16,2,16,0.54
2014-5-1,79.7,63.2,47.9,66.4,55.6,47.6,100,80,42,29.93,29.61,18,2,18,0.00
2014-5-2,69.3,61.9,54.0,54.2,47.2,41.4,93,61,42,29.80,29.65,22,3,22,0.00
2014-5-3,72.2,59.9,48.8,52.2,46.3,41.4,94,63,43,29.83,29.67,21,2,21,0.00
2014-5-4,65.7,57.1,50.5,52.1,44.2,33.2,94,65,37,29.74,29.59,33,4,33,0.00
2014-5-5,69.1,58.5,49.0,42.9,38.4,32.5,72,49,30,29.86,29.74,22,6,26,0.00
2014-5-6,69.8,58.3,48.4,42.2,38.2,32.9,63,48,33,30.03,29.83,24,2,24,0.00
2014-5-7,72.8,58.9,44.6,45.7,40.1,35.1,73,51,32,30.19,30.03,10,1,13,0.00
2014-5-8,59.4,55.3,51.9,56.7,53.1,45.5,99,93,60,30.14,30.04,9,0,9,0.00
2014-5-9,55.2,55.0,54.9,54.8,54.4,54.1,99,98,97,30.13,30.06,6,0,6,0.00
2014-7-21,55.1,55.1,55.1,54.8,54.8,54.8,99,99,99,30.09,30.09,0,0,0,0.00
2014-7-22,55.1,55.1,55.1,54.8,54.8,54.8,99,99,99,30.09,30.09,0,0,0,0.00
2014-7-23,55.1,55.1,55.1,54.8,54.8,54.8,99,99,99,30.09,30.09,0,0,0,0.00
2014-7-24,55.1,55.1,55.1,54.8,54.8,54.8,99,99,99,30.09,30.09,0,0,0,0.00
2014-7-25,55.1,55.1,55.1,54.8,54.8,54.8,99,99,99,30.09,30.09,0,0,0,0.00
2014-7-26,78.9,59.4,55.1,71.0,57.9,54.8,99,95,75,30.09,29.83,3,0,12,0.00
2014-7-27,89.7,78.3,69.7,76.0,71.8,68.5,98,82,57,29.85,29.58,5,1,14,0.06
2014-7-28,84.3,74.6,67.0,76.0,68.7,61.0,99,83,59,29.64,29.45,24,3,24,0.23
2014-7-29,76.6,68.7,61.5,61.0,58.7,56.9,86,71,53,29.92,29.63,19,2,19,0.00
2014-7-30,81.6,70.0,58.0,61.8,58.6,55.4,93,70,46,29.99,29.91,15,1,15,0.00
2014-7-31,84.9,72.4,59.0,68.6,63.3,57.3,97,75,53,30.08,29.99,18,1,18,0.03
2014-8-1,86.1,71.5,64.4,75.1,68.5,63.3,99,91,65,30.17,30.08,13,0,13,0.37
2014-8-2,76.2,69.2,64.5,69.1,66.8,63.8,100,92,78,30.14,30.04,11,0,11,0.08
2014-8-3,78.4,70.5,64.9,70.2,66.9,63.7,99,89,73,30.07,29.97,6,0,6,0.01
2014-8-4,87.7,77.5,68.8,71.3,68.8,66.6,95,76,54,30.01,29.94,11,1,11,0.00
2014-8-5,91.6,78.7,65.2,72.2,68.2,64.0,98,73,47,29.99,29.83,14,0,14,0.00
2014-8-6,84.4,75.2,68.3,68.8,65.9,61.3,92,74,53,29.87,29.77,18,2,18,0.00
2014-8-7,83.2,72.4,61.7,64.2,59.4,55.3,87,65,46,29.97,29.84,19,2,19,0.00
2014-8-8,83.0,72.2,59.7,64.1,59.8,55.1,90,67,49,30.04,29.96,14,1,14,0.00
2014-8-9,86.2,74.4,60.0,66.1,60.7,57.3,94,65,40,30.07,30.00,13,0,13,0.00
2014-8-10,88.7,75.3,59.7,68.9,62.7,57.7,95,68,45,30.09,30.01,10,0,10,0.00
2014-8-11,88.3,75.3,62.5,69.5,63.7,60.0,96,70,41,30.08,30.03,16,1,16,0.00
2014-8-12,78.3,73.3,67.4,72.3,69.1,65.1,95,87,77,30.03,29.81,18,0,18,0.01
2014-8-13,83.4,72.9,66.9,73.5,69.3,63.5,100,89,67,29.81,29.58,15,2,21,0.59
2014-8-14,78.7,70.2,60.9,63.5,58.4,54.5,84,67,50,29.83,29.72,20,3,20,0.01
2014-8-15,72.5,65.9,55.9,58.2,55.6,52.1,90,70,57,29.93,29.83,15,2,15,0.00
2014-8-16,80.0,69.2,55.7,60.1,57.1,53.7,96,68,46,29.96,29.85,19,1,19,0.01
2014-8-17,82.1,72.2,64.1,68.7,61.7,57.6,92,71,53,29.86,29.76,18,2,18,0.02
2014-8-18,81.3,71.2,60.3,63.0,59.5,56.4,90,68,50,29.87,29.76,16,2,16,0.00
2014-8-19,83.7,72.0,59.7,69.3,62.8,55.2,86,74,53,29.89,29.81,10,1,10,0.00
2014-8-20,86.9,75.4,66.1,70.7,66.5,61.6,97,76,54,29.98,29.87,13,0,13,0.00
2014-8-21,82.7,73.7,66.1,71.9,66.8,61.6,99,80,62,30.01,29.93,14,1,14,0.20
2014-8-22,76.4,69.6,66.1,69.2,66.1,62.3,99,89,76,30.01,29.94,10,0,10,0.08
2014-8-23,76.9,69.5,63.9,66.0,63.8,61.0,96,83,62,30.07,29.99,11,0,11,0.00
2014-8-24,80.0,70.6,59.6,67.2,63.5,58.2,97,79,60,30.11,30.04,18,1,18,0.00
2014-8-25,87.8,73.9,57.8,69.3,64.2,57.0,99,75,50,30.13,30.05,11,1,11,0.00
2014-8-26,89.7,76.1,62.9,72.5,67.1,61.5,97,76,51,30.12,30.00,15,0,15,0.00
2014-8-27,92.7,80.0,64.8,75.9,70.1,63.3,97,74,55,30.02,29.79,15,1,15,0.00
2014-8-28,80.4,73.7,64.4,73.1,60.9,52.8,86,65,49,30.01,29.79,24,4,24,0.00
2014-8-29,80.0,68.2,54.8,61.3,56.8,52.1,93,69,49,30.19,30.01,12,1,12,0.00
2014-8-30,81.5,69.7,55.4,69.3,62.9,54.0,98,80,58,30.22,30.08,14,0,14,0.00
2014-8-31,90.3,77.7,71.4,78.7,72.8,66.7,96,85,65,30.09,29.89,15,1,15,0.06
2014-9-1,90.9,82.1,73.3,77.8,75.2,72.6,98,81,62,29.95,29.84,15,1,15,0.00
2014-9-2,94.1,85.8,74.3,78.6,75.1,71.7,97,72,56,29.88,29.72,20,2,23,0.00
2014-9-3,86.8,77.4,68.3,72.1,64.8,61.1,86,67,44,30.06,29.75,15,2,20,0.00
2014-9-4,89.2,75.6,59.5,70.7,64.6,57.7,96,71,45,30.15,30.04,13,0,15,0.00
2014-9-5,88.4,78.1,67.1,78.2,72.6,65.3,97,84,70,30.11,29.95,19,1,19,0.00
2014-9-6,93.7,81.3,67.1,79.8,74.7,65.2,98,82,58,29.95,29.75,18,2,19,0.08
2014-9-7,80.9,70.4,62.3,65.1,61.1,56.8,96,75,50,30.14,29.89,22,1,22,0.00
2014-9-8,77.0,68.0,59.3,65.6,59.2,54.8,86,74,54,30.27,30.14,13,1,19,0.00
2014-9-9,74.6,66.3,59.0,65.2,60.9,55.3,92,83,70,30.24,30.09,13,1,13,0.00
2014-9-10,79.2,70.1,60.6,66.4,62.7,57.4,90,78,61,30.09,29.96,10,1,12,0.00
2014-9-11,82.0,73.7,67.3,74.0,68.7,59.9,94,85,71,29.97,29.75,19,2,19,0.00
2014-9-12,78.0,67.0,58.2,62.0,56.8,52.3,86,71,55,30.14,29.90,14,2,14,0.00
2014-9-13,67.0,60.8,55.6,62.4,57.0,51.3,98,88,76,30.15,30.04,11,0,13,0.15
2014-9-14,71.3,58.9,47.9,54.7,51.2,46.8,97,78,51,30.23,30.11,14,1,14,0.03
2014-9-15,73.7,61.2,49.2,54.5,50.7,46.1,92,70,49,30.20,30.02,11,1,11,0.00
2014-9-16,72.0,61.0,54.1,64.4,56.1,52.5,99,85,62,30.02,29.90,13,1,13,0.19
2014-9-17,73.4,60.8,48.3,55.3,51.0,47.4,98,74,45,30.02,29.90,12,1,12,0.01
2014-9-18,75.2,61.8,47.5,58.2,51.7,46.1,98,73,43,30.06,29.90,12,1,13,0.00
2014-9-19,65.9,59.2,50.8,53.3,50.3,45.4,89,73,57,30.32,30.06,14,1,14,0.00
2014-9-20,75.3,65.1,53.7,65.7,59.4,50.6,95,82,69,30.30,30.01,17,1,17,0.00
2014-9-21,77.4,70.0,65.3,72.1,67.8,64.5,99,93,82,30.01,29.55,11,0,11,0.00
2014-9-22,70.3,64.0,53.1,68.0,54.6,43.9,96,72,56,30.12,29.57,22,3,23,0.00
2014-9-23,74.4,59.2,44.2,54.3,48.5,41.7,94,70,47,30.36,30.12,12,0,12,0.00
2014-9-24,71.2,61.3,50.1,60.3,55.2,49.0,97,81,62,30.51,30.36,15,1,15,0.00
2014-9-25,64.1,60.3,56.8,61.3,57.4,54.8,96,90,85,30.42,30.17,13,2,13,0.12
2014-9-26,59.0,58.6,58.2,56.4,56.1,55.4,93,91,89,30.18,30.17,4,0,6,0.00
2014-9-28,87.1,70.7,54.9,67.7,61.8,54.0,99,76,49,30.13,29.95,3,0,10,0.00
2014-9-29,78.3,70.0,61.6,66.4,63.3,59.8,95,80,62,29.95,29.84,1,0,5,0.00
2014-9-30,70.4,66.4,62.8,65.7,62.7,59.6,96,88,80,29.94,29.86,4,0,11,0.00
2014-10-1,65.3,62.5,59.8,61.7,59.7,57.6,93,91,87,30.03,29.93,3,1,9,0.00
2014-10-2,68.6,63.2,59.3,60.9,59.0,57.1,96,87,75,30.10,30.03,3,1,9,0.00
2014-10-3,70.7,62.1,53.2,58.9,55.5,51.8,96,80,57,30.07,29.80,3,0,13,0.00
2014-10-4,68.3,62.0,51.7,67.0,58.3,41.9,100,88,67,29.79,29.44,14,1,16,0.12
2014-10-5,61.3,51.2,41.9,44.3,40.6,36.4,87,68,51,29.95,29.65,17,2,17,0.01
2014-10-6,69.8,56.2,39.7,56.2,48.6,38.4,99,78,51,30.02,29.95,15,1,15,0.00
2014-10-7,73.4,66.0,60.0,62.6,58.0,55.1,92,76,59,30.01,29.84,19,2,19,0.01
2014-10-8,73.3,65.7,59.4,63.2,56.1,45.2,98,73,50,29.90,29.72,24,3,24,0.00
2014-10-9,68.4,59.1,47.4,48.2,45.8,43.6,88,63,45,30.01,29.89,22,2,22,0.00
2014-10-10,62.3,56.4,46.3,48.9,46.1,42.7,90,69,55,30.09,29.99,10,0,10,0.00
2014-10-11,54.9,51.2,45.6,51.8,49.1,44.5,98,93,80,30.13,30.00,10,1,10,0.00
2014-10-12,62.4,50.7,41.2,47.4,44.1,40.4,98,80,50,30.27,30.12,11,0,11,0.00
2014-10-13,63.6,55.1,42.8,61.5,52.2,41.3,98,90,77,30.29,30.18,9,0,9,0.00
2014-10-14,76.0,67.9,60.3,69.5,65.2,60.0,100,91,77,30.18,30.05,13,1,13,0.00
2014-10-15,77.8,71.4,68.5,72.1,69.2,66.5,99,93,82,30.04,29.77,18,1,18,0.00
2014-10-16,72.0,66.7,56.4,69.0,63.8,55.0,100,91,67,29.77,29.62,17,1,17,0.01
2014-10-17,72.5,63.6,56.4,58.4,56.7,55.2,97,79,58,29.68,29.60,20,2,20,0.00
2014-10-18,69.2,59.4,52.6,59.4,53.1,47.3,98,81,58,29.67,29.50,21,2,21,0.00
2014-10-19,55.0,49.7,40.9,47.9,39.0,32.2,78,67,51,30.02,29.66,28,4,28,0.01
2014-10-20,59.9,47.9,37.3,45.4,38.9,32.1,88,72,55,30.08,29.91,17,1,17,0.00
2014-10-21,64.2,53.5,47.3,57.1,51.2,44.7,99,92,72,29.91,29.77,12,0,12,0.00
2014-10-22,55.9,53.5,50.0,54.3,51.9,48.8,99,95,86,29.90,29.69,26,5,26,0.00
2014-10-23,53.7,51.6,50.1,51.0,49.1,47.1,96,91,84,29.74,29.65,25,6,25,0.00
2014-10-24,65.6,55.3,49.5,53.7,48.4,43.8,90,78,62,29.79,29.70,22,2,22,0.00
2014-10-25,68.6,57.7,46.0,51.8,46.7,40.9,84,67,54,29.82,29.50,16,2,16,0.02
2014-10-26,60.6,56.3,49.5,53.5,44.9,41.4,89,66,53,29.78,29.49,27,4,27,0.01
2014-10-27,64.7,54.1,45.6,45.9,42.8,40.4,88,67,45,29.98,29.78,18,2,18,0.00
2014-10-28,70.0,54.9,42.0,58.5,49.5,40.4,97,83,65,30.00,29.85,10,0,10,0.00
2014-10-29,70.4,55.7,49.2,62.1,51.9,47.0,100,89,51,29.90,29.78,14,1,19,0.07
2014-10-30,56.3,48.3,40.7,47.4,42.0,38.4,98,80,59,29.98,29.89,17,2,17,0.00
2014-10-31,54.1,47.3,39.2,46.1,40.6,36.2,91,78,65,29.98,29.83,12,1,12,0.00
2014-11-1,48.9,45.0,41.5,45.5,40.7,38.0,94,85,72,29.83,29.73,27,6,27,0.17
2014-11-2,47.4,42.8,39.5,38.3,31.6,24.4,87,65,47,30.01,29.73,32,8,32,0.00
2014-11-3,62.2,49.7,39.4,36.1,31.7,28.4,70,52,30,30.09,29.98,27,3,27,0.00
2014-11-4,71.4,59.8,50.2,43.6,36.6,28.9,59,43,29,30.11,29.96,16,1,16,0.00
2014-11-5,63.5,56.3,48.7,48.6,43.0,37.0,76,62,40,30.09,29.94,16,1,16,0.00
2014-11-6,49.2,48.2,45.9,48.6,46.1,39.9,98,93,72,30.07,29.53,7,0,7,0.29
2014-11-7,51.6,45.3,38.0,45.9,38.7,30.1,98,78,64,29.90,29.51,30,5,30,0.00
2014-11-8,48.2,41.7,33.4,35.8,31.4,28.2,81,67,54,30.00,29.86,14,2,14,0.00
2014-11-9,57.8,47.7,37.6,40.6,38.1,34.9,90,70,50,29.97,29.84,15,1,15,0.00
2014-11-10,63.8,46.2,32.5,44.0,38.5,31.2,97,77,45,30.13,29.97,6,0,10,0.00
2014-11-11,65.2,50.8,37.9,58.2,47.8,36.7,98,90,76,30.10,29.86,11,0,11,0.00
2014-11-12,64.7,54.8,44.4,60.7,49.7,34.4,99,84,60,30.04,29.82,22,1,22,0.00
2014-11-13,48.4,41.4,33.3,36.5,33.0,29.6,95,73,55,30.08,29.94,8,1,9,0.10
2014-11-14,42.0,36.2,28.5,35.1,27.1,21.7,96,71,47,30.14,29.90,16,3,22,0.03
2014-11-15,42.2,32.2,25.6,26.2,23.6,22.4,91,72,47,30.33,30.14,18,2,18,0.00
2014-11-16,42.7,33.1,25.6,31.7,26.9,22.5,90,79,63,30.34,30.16,11,0,11,0.00
2014-11-17,45.4,41.4,37.6,45.1,39.8,28.9,100,94,68,29.96,29.45,9,1,19,0.17
2014-11-18,38.3,27.8,22.9,28.7,13.0,9.0,70,54,42,30.04,29.60,14,7,27,0.00
2014-11-19,33.9,27.0,20.2,20.0,12.9,8.6,63,55,41,30.23,30.01,24,4,24,0.00
2014-11-20,44.7,35.1,26.3,30.2,22.3,13.8,78,60,46,30.00,29.78,23,4,24,0.12
2014-11-21,35.6,29.3,22.7,17.4,15.7,13.6,79,57,44,30.46,29.99,25,4,25,0.00
2014-11-22,42.5,33.4,21.7,26.8,20.3,14.8,81,60,42,30.46,30.14,21,3,21,0.04
2014-11-23,56.8,46.4,41.3,38.4,31.8,26.6,76,57,43,30.16,29.93,12,1,12,0.03
2014-11-24,72.8,62.6,45.8,65.2,58.6,38.8,100,88,73,29.93,29.49,27,5,29,0.52
2014-11-25,65.0,54.7,44.3,60.8,42.2,35.1,88,64,48,30.11,29.67,17,2,19,0.01
2014-11-26,46.4,37.8,33.0,36.6,33.8,31.7,97,87,65,30.17,29.75,23,3,23,0.00
2014-11-27,36.2,34.8,34.4,33.8,33.0,32.7,95,93,90,29.96,29.80,12,1,12,0.00
2014-11-28,35.9,29.4,23.3,26.9,22.4,17.6,92,75,59,30.25,30.03,13,3,23,0.07
2014-11-29,35.7,30.2,21.8,29.5,22.4,17.7,92,73,60,30.32,30.15,4,1,9,0.00
2014-11-30,48.3,43.8,35.7,39.6,37.1,29.5,88,77,69,30.15,30.02,7,1,14,0.15
2014-12-1,66.2,50.1,39.7,55.1,43.4,28.1,89,78,64,30.42,30.01,20,3,20,0.04
2014-12-2,39.6,36.4,32.5,38.6,29.9,21.8,97,78,61,30.59,30.25,18,3,18,0.01
2014-12-3,44.7,41.6,38.5,43.5,39.4,30.1,98,92,70,30.25,29.91,24,3,24,0.01
2014-12-4,44.6,37.8,32.4,30.4,27.3,23.7,81,66,53,30.49,30.17,16,2,16,0.02
2014-12-5,39.3,35.2,29.6,38.5,30.4,23.7,97,83,72,30.55,30.29,13,2,13,0.06
2014-12-6,45.2,41.6,39.0,44.9,41.0,38.0,99,98,94,30.30,30.04,20,2,20,0.34
2014-12-7,40.0,35.9,27.0,38.2,23.6,8.7,95,63,40,30.59,30.16,30,9,30,0.08
2014-12-8,32.6,27.1,21.6,28.6,17.9,5.9,85,69,42,30.67,30.32,17,4,17,0.00
2014-12-9,42.9,38.3,32.6,40.5,36.4,28.6,97,93,85,30.31,29.62,23,7,26,0.02
2014-12-10,40.6,36.3,31.5,38.2,33.1,27.7,94,88,80,29.63,29.53,26,5,26,0.00
2014-12-11,36.3,33.0,30.8,28.5,26.4,24.2,90,77,65,29.82,29.55,19,3,19,0.36
2014-12-12,36.8,33.4,31.0,29.2,26.2,23.8,79,75,70,29.95,29.82,18,6,25,0.36
2014-12-13,42.5,37.2,33.5,33.5,30.4,27.7,84,76,63,29.95,29.84,17,6,23,0.34
2014-12-14,45.8,40.2,36.4,36.8,34.0,32.1,86,79,67,29.93,29.82,19,3,19,0.17
2014-12-15,50.5,37.6,28.5,38.1,32.5,26.9,96,82,62,30.08,29.92,12,0,12,0.08
2014-12-16,45.5,38.5,29.5,42.8,36.6,28.0,98,93,85,30.07,29.79,5,0,8,0.17
2014-12-17,52.6,45.5,40.8,45.7,41.4,32.4,99,86,70,29.85,29.74,18,3,20,0.01
2014-12-18,42.2,38.6,36.5,33.2,29.8,26.9,83,70,63,29.95,29.83,25,2,25,0.00
2014-12-19,36.8,34.4,30.9,30.6,26.2,24.1,79,72,63,30.16,29.92,0,0,0,0.00
2014-12-20,32.9,31.4,30.1,25.7,24.6,22.8,81,75,71,30.26,30.14,0,0,0,0.00
2014-12-21,35.7,32.7,30.2,30.9,28.6,25.5,92,85,80,30.30,30.23,0,0,0,0.00
2014-12-22,43.5,38.5,34.3,42.7,36.2,30.9,97,92,87,30.30,30.11,0,0,0,0.03
2014-12-23,46.1,44.6,43.5,45.8,44.1,42.7,99,98,97,30.12,30.03,0,0,0,0.23
2014-12-24,50.8,46.7,44.6,50.8,46.5,44.3,100,100,99,30.04,29.47,0,0,0,0.41
2014-12-25,60.7,50.0,42.2,60.7,41.9,33.2,100,75,56,30.07,29.43,0,0,0,0.10
2014-12-26,51.4,42.1,34.8,36.4,33.8,31.0,86,73,55,30.21,30.07,0,0,0,0.00
2014-12-27,56.8,43.7,34.4,42.2,36.9,31.3,92,78,58,30.22,30.01,0,0,0,0.00
2014-12-28,52.4,44.9,40.3,47.5,40.5,31.7,96,85,70,30.03,29.81,0,0,0,0.04
2014-12-29,42.8,36.7,29.8,31.3,26.4,23.2,92,67,51,30.23,30.03,0,0,0,0.00
2014-12-30,33.2,28.4,23.4,23.2,19.0,15.5,79,68,56,30.37,30.22,0,0,0,0.00
2014-12-31,31.5,26.7,22.2,19.2,16.4,14.3,80,66,49,30.32,30.20,0,0,0,0.00
2015-1-1,38.4,29.6,20.7,22.2,16.9,12.2,74,60,44,30.14,29.92,0,0,0,0.00
2015-1-2,42.5,35.5,29.9,25.9,23.5,21.7,77,62,50,30.42,29.96,0,0,0,0.00